This demonstration page uses our WeatherBlox Daily Observations layout. Learn more.

Left ArrowRight Arrow

38.88101, -77.10428

Hourly Observations for July 4, 2020

Temp ( °F °C ) Dew Point ( °F °C ) Humidity (%) Winds ( mph kmh ) Pressure ( in mb ) Visibility ( mi km ) Precip ( " mm )
12:52 am 00:52 Mostly Clear 84 28.9 66 18.9 55 55 N 3 6 29.88 1012 10 16.0934 0 0
1:52 am 01:52 Mostly Clear 82 27.8 66 18.9 58 58 NNW 6 9 29.87 1012 10 16.0934 0 0
2:52 am 02:52 Mostly Clear 80 26.7 68 20 67 67 N 8 13 29.87 1011 10 16.0934 0 0
3:52 am 03:52 Mostly Clear 79 26.1 69 20.6 72 72 N 6 9 29.87 1011 10 16.0934 0 0
4:52 am 04:52 Mostly Clear 79 26.1 67 19.4 67 67 N 7 11 29.88 1012 10 16.0934 0 0
5:52 am 05:52 Mostly Sunny 78 25.6 67 19.4 69 69 NNW 6 9 29.89 1012 10 16.0934 0 0
6:52 am 06:52 Mostly Sunny 79 26.1 67 19.4 67 67 NNW 8 13 29.9 1013 10 16.0934 0 0
7:52 am 07:52 Mostly Sunny 82 27.8 68 20 63 63 N 9 15 29.92 1013 10 16.0934 0 0
8:52 am 08:52 Mostly Sunny 84 28.9 69 20.6 61 61 NNE 9 15 29.92 1013 10 16.0934 0 0
9:52 am 09:52 Mostly Sunny 86 30 70 21.1 59 59 NE 10 17 29.92 1013 10 16.0934 0 0
10:52 am 10:52 Partly Cloudy 88 31.1 69 20.6 54 54 NE 7 11 29.93 1013 10 16.0934 0 0
11:52 am 11:52 Partly Cloudy 90 32.2 68 20 48 48 ENE 8 13 29.93 1014 10 16.0934 0 0
12:52 pm 12:52 Mostly Cloudy 91 32.8 68 20 47 47 N 6 9 29.92 1013 10 16.0934 0 0
1:52 pm 13:52 Mostly Cloudy 93 33.9 67 19.4 42 42 E 5 7 29.92 1013 10 16.0934 0 0
2:52 pm 14:52 Mostly Cloudy 92 33.3 65 18.3 41 41 E 3 6 29.9 1013 10 16.0934 0 0
3:52 pm 15:52 Partly Cloudy with Nearby Thunderstorms 91 32.8 67 19.4 45 45 SSE 8 13 29.9 1012 10 16.0934 0 0
4:07 pm 16:07 Partly Cloudy with Thunderstorms 90 32.2 68 20 48 48 undefined N/A 29.9 1012 10 16.0934 0 0
4:16 pm 16:16 Partly Cloudy with Light Thunderstorms 86 30 71 21.7 61 61 ENE 17 28 29.9 1012 10 16.0934 0.001 0.001
4:33 pm 16:33 Partly Cloudy with Nearby Thunderstorms 86 30 69 20.6 57 57 E 14 22 29.91 1013 10 16.0934 0.001 0.001
4:39 pm 16:39 Partly Cloudy 87 30.6 69 20.6 55 55 E 12 19 29.91 1013 10 16.0934 0.001 0.001
4:52 pm 16:52 Partly Cloudy 88 31.1 69 20.6 54 54 E 10 17 29.91 1013 10 16.0934 0.001 0.001
5:52 pm 17:52 Partly Cloudy 88 31.1 68 20 52 52 E 8 13 29.9 1013 10 16.0934 0 0
6:52 pm 18:52 Mostly Cloudy 87 30.6 68 20 53 53 SE 6 9 29.91 1013 10 16.0934 0 0
7:52 pm 19:52 Mostly Cloudy 85 29.4 68 20 57 57 SE 8 13 29.91 1013 10 16.0934 0 0
8:52 pm 20:52 Mostly Cloudy 83 28.3 69 20.6 63 63 S 5 7 29.91 1013 10 16.0934 0 0
9:52 pm 21:52 Mostly Cloudy 82 27.8 69 20.6 65 65 S 5 7 29.93 1014 10 16.0934 0 0
10:52 pm 22:52 Hazy 82 27.8 69 20.6 65 65 SSE 3 6 29.93 1014 5 8.0467 0 0
11:52 pm 23:52 Hazy 81 27.2 71 21.7 72 72 S 5 7 29.94 1014 5 8.0467 0 0

Powered by AerisWeather